Location: College Park
(38.9810°N, 76.9370°W)
Time: 16:12:35
(UTC-05:00)

Vanguard 3 - Visible Passes

Search period start: 20 November 2017 00:00
Search period end: 30 November 2017 00:00
Orbit: 509 x 3263 km, 33.4° (Epoch: 18 November)

Date Brightness Start Highest point End Pass type
(mag) Time Alt. Az. Time Alt. Az. Time Alt. Az.
20 Nov 11.1 02:12:02 19° SSE 02:12:02 19° SSE 02:16:08 10° SSE visible
20 Nov 11.1 04:16:37 11° SW 04:16:37 11° SW 04:18:56 10° SSW visible
20 Nov 9.4 17:52:54 10° SSW 18:00:00 34° SE 18:08:35 16° E visible
20 Nov 9.2 20:02:29 10° WSW 20:12:36 66° SSE 20:13:09 65° SSE visible
20 Nov 10.5 22:14:15 10° W 22:17:43 24° W 22:17:43 24° W visible
21 Nov 11.1 03:07:00 16° SSW 03:07:00 16° SSW 03:11:05 10° S visible
21 Nov 9.1 18:49:36 10° SW 18:57:52 53° SSE 19:03:21 35° ESE visible
21 Nov 9.6 21:00:26 10° W 21:07:55 53° WSW 21:07:55 53° WSW visible
22 Nov 11.3 01:57:19 13° SSE 01:57:19 13° SSE 01:58:54 10° SSE visible
22 Nov 9.2 17:37:25 10° SSW 17:43:57 36° SE 17:53:33 13° E visible
22 Nov 9.0 19:47:07 10° WSW 19:56:27 66° S 19:58:06 62° SE visible
22 Nov 10.3 21:58:41 10° W 22:02:40 28° W 22:02:40 28° W visible
23 Nov 11.3 02:52:09 11° S 02:52:09 11° S 02:53:05 10° S visible
23 Nov 8.9 18:34:16 10° SW 18:41:52 55° SSE 18:48:18 30° E visible
23 Nov 9.3 20:45:01 10° W 20:52:52 58° SW 20:52:52 58° SW visible
23 Nov 11.0 22:57:15 10° W 22:57:26 11° W 22:57:26 11° W visible
24 Nov 9.0 17:22:00 10° SW 17:28:03 38° SSE 17:38:09 10° E visible
24 Nov 8.9 19:31:47 10° WSW 19:40:25 66° S 19:43:04 56° SE visible
24 Nov 10.2 21:43:12 10° W 21:47:38 31° W 21:47:38 31° W visible
25 Nov 8.7 18:19:00 10° WSW 18:25:59 56° SSE 18:33:16 25° E visible
25 Nov 9.1 20:29:41 10° W 20:37:49 62° SW 20:37:49 62° SW visible
25 Nov 10.9 22:41:43 10° W 22:42:24 12° W 22:42:24 12° W visible
26 Nov 8.8 17:06:41 10° SW 17:12:16 39° SSE 17:21:35 10° E visible
26 Nov 8.8 19:16:33 10° WSW 19:24:29 65° S 19:28:03 48° ESE visible
26 Nov 10.0 21:27:49 10° W 21:32:37 34° WSW 21:32:37 34° WSW visible
27 Nov 8.6 18:03:48 10° WSW 18:10:13 57° SSE 18:18:18 19° E visible
27 Nov 9.0 20:14:24 10° W 20:22:52 63° SSW 20:22:52 63° SSW visible
27 Nov 10.8 22:26:19 10° W 22:27:26 14° W 22:27:26 14° W visible
28 Nov 8.6 19:01:22 10° WSW 19:08:39 64° S 19:13:08 40° ESE visible
28 Nov 9.8 21:12:30 10° W 21:17:43 37° WSW 21:17:43 37° WSW visible
29 Nov 8.4 17:48:38 10° WSW 17:54:32 57° S 18:03:27 14° E visible
29 Nov 8.9 19:59:11 10° W 20:07:22 59° S 20:08:02 58° S visible
29 Nov 10.7 22:11:03 10° W 22:12:36 16° W 22:12:36 16° W visible
